SCP
0 0 0 0 0 0 0 0 0 0 0 0 0 0 0 0 0 0 0 0 0 0 0 0 0 0 0 0 0 0 0 0 0 0 0 0 0 0 0 0 0 0 0 0 -0 -0 -0 -0 -0
0 0 0 0 0 0 0 0 0 -0 0 0 0 0 0 0 0 0 0 0 0 0 0 0 0 0 0 0 0 0 0 0 0 0 0 0 0 0 0 0 0 0 0 0 0 -0 -0 -0 -0
0 0 0 0 0 0 0 0 -0 -0 0 0 0 0 0 0 0 0 0 0 0 0 1 1 0 0 0 0 0 0 0 0 0 0 0 0 0 0 0 0 0 0 0 0 0 0 0 -0 -0
0 0 0 0 0 0 0 0 0 -0 0 0 0 0 0 0 0 0 0 0 0 0 0 0 0 0 0 0 0 0 0 0 0 0 0 0 0 0 0 0 0 0 0 0 0 0 0 0 0
0 0 0 0 0 0 0 0 0 0 0 0 0 0 0 1 0 0 0 0 0 0 0 0 1 1 0 0 0 0 0 0 0 0 0 0 0 0 0 0 0 0 0 0 0 0 0 0 0
0 0 0 0 0 0 0 0 0 0 0 0 0 0 0 1 1 1 0 0 0 0 0 0 1 1 1 0 0 0 0 0 0 0 0 0 0 0 0 0 0 0 0 0 0 0 0 0 0
0 0 0 0 0 0 0 0 0 0 0 0 0 0 1 1 2 1 1 1 1 1 1 1 1 1 1 0 0 0 0 0 0 0 0 0 0 0 0 0 0 0 0 0 0 0 0 0 0
0 0 0 0 0 0 0 0 0 0 0 0 0 0 0 1 2 2 2 2 2 1 1 1 1 1 1 0 0 0 0 0 0 0 0 0 0 0 0 0 0 0 0 0 0 0 0 0 0
0 0 0 0 0 0 0 0 0 0 0 0 0 0 1 0 1 2 2 2 1 2 1 1 1 1 1 1 0 0 0 0 0 0 0 0 0 0 0 0 0 0 0 0 0 0 0 0 0
0 0 0 0 0 0 0 0 0 0 0 0 0 0 0 0 0 0 0 1 1 1 1 1 1 1 1 1 0 0 0 0 0 0 0 0 0 0 0 0 0 0 0 0 0 0 0 0 0
0 0 0 0 0 0 0 0 0 0 0 0 0 0 0 0 0 0 0 0 1 1 1 1 1 1 1 1 0 1 0 0 0 0 0 0 0 0 0 0 0 0 0 0 0 0 0 0 0
0 0 0 0 0 0 0 0 0 0 0 0 0 0 0 0 0 0 0 0 0 0 1 0 1 1 1 1 1 0 0 0 0 0 0 0 0 0 0 0 0 0 0 0 0 0 0 0 0
0 0 0 0 0 0 0 0 0 0 0 -0 0 0 0 0 0 0 0 0 0 0 0 1 0 1 1 0 0 0 0 0 0 0 0 0 0 0 0 0 0 0 0 0 0 0 0 0 0
0 0 0 0 0 0 0 0 0 0 0 0 0 0 0 0 0 0 0 0 0 0 0 0 1 0 1 0 0 0 0 0 0 0 0 0 0 0 0 0 0 0 0 0 0 0 0 0 0
0 0 -0 0 0 0 0 0 0 0 0 0 0 0 0 0 0 0 0 0 0 0 0 0 0 0 0 0 0 0 0 0 0 0 0 0 0 0 0 0 0 0 0 0 0 0 0 0 0
0 0 0 0 0 0 0 0 -0 0 0 0 0 0 0 0 0 0 0 0 0 0 0 0 0 0 0 0 0 0 0 0 0 0 0 0 0 0 0 0 0 0 0 0 0 0 0 0 0
0 0 0 0 0 0 0 -0 0 0 0 0 0 0 0 0 0 0 0 0 0 0 0 0 0 -0 0 0 0 0 0 0 0 0 0 0 0 0 0 0 0 0 0 0 0 0 0 0 0
0 0 0 0 0 0 -0 -0 -0 0 0 0 -0 0 0 0 0 0 0 0 0 0 0 0 0 0 0 0 0 0 0 0 0 0 0 0 0 0 0 0 0 0 0 0 0 0 0 0 0
0 0 0 -0 0 0 0 -0 -0 0 0 0 0 0 -0 0 0 0 0 0 0 0 0 0 0 0 0 0 0 0 0 0 0 0 0 0 0 0 0 0 0 0 0 0 0 0 0 0 0
0 0 0 0 0 0 0 0 0 -0 0 0 0 0 0 0 0 0 0 0 0 0 0 0 0 0 0 0 0 0 0 0 0 0 0 0 0 0 0 0 0 0 0 0 0 0 0 0 0
0 0 0 0 0 0 0 -0 -0 -0 -0 -0 0 0 0 0 0 0 0 0 0 0 0 0 0 0 0 0 0 0 0 0 0 0 0 0 0 0 0 0 0 0 0 0 0 0 0 0 0
0 0 0 0 0 0 0 0 -0 0 0 0 0 -0 -0 -0 0 0 0 0 0 0 0 0 0 0 0 0 0 0 0 0 0 0 0 0 0 0 0 0 0 0 0 0 0 0 0 0 0
0 0 0 0 0 0 0 0 0 0 0 0 0 0 0 -0 0 0 0 0 0 0 0 0 0 0 0 0 0 0 0 0 0 0 0 0 0 0 0 0 0 0 0 0 0 0 0 0 0
0 0 0 0 0 0 0 0 0 0 0 0 -0 0 0 0 0 0 0 0 0 0 0 0 0 0 0 0 0 0 0 0 0 0 0 0 0 0 0 0 0 0 0 0 0 0 0 0 0
0 0 0 0 0 0 0 0 0 0 0 -0 -0 0 0 0 0 0 0 0 0 0 0 0 0 0 0 0 0 0 0 0 0 0 0 0 0 0 0 0 0 0 0 0 0 0 0 0 0
0 0 0 0 0 0 0 0 0 0 0 0 0 0 0 0 0 0 0 0 0 0 0 0 0 0 0 0 0 0 0 0 0 0 0 0 0 0 0 0 0 0 0 0 0 0 0 0 0
0 0 0 0 0 0 0 0 0 -0 0 0 0 0 0 0 0 0 0 0 0 0 0 0 0 0 0 0 0 0 0 0 0 0 0 0 0 0 0 0 0 0 0 0 0 0 0 0 0
0 0 0 0 0 0 0 0 -0 -0 0 0 0 0 0 0 0 0 0 0 0 0 0 0 0 0 0 0 0 0 0 0 0 0 0 0 0 0 0 0 0 0 0 0 0 0 0 0 0
0 0 0 0 0 0 0 0 -0 0 0 0 0 -0 -0 0 0 0 0 0 0 0 0 0 0 0 0 0 0 0 0 0 0 0 0 0 0 0 0 0 0 0 0 0 0 0 0 0 0
0 0 0 0 0 0 0 0 -0 0 0 0 0 -0 0 0 0 0 0 0 0 0 0 0 0 0 0 0 0 0 0 0 0 0 0 0 0 0 0 0 0 0 0 0 0 0 0 0 0
Wind_Speed_500mb
14 12 8 3 3 1 9 12 17 16 12 7 19 13 3 6 3 6 35 15 19 26 20 46 48 48 47 44 41 39 37 37 31 29 28 27 25 24 23 22 17 22 28 26 27 29 27 34 34
4 5 4 5 6 8 9 18 24 23 39 20 14 13 4 8 7 21 28 24 22 26 22 42 46 47 48 45 42 40 39 39 33 30 28 27 24 22 20 19 24 34 31 32 32 29 33 31 32
1 3 3 6 9 19 9 15 33 34 36 28 17 12 9 5 26 24 21 23 24 25 22 32 46 47 47 45 43 41 42 40 36 32 27 27 25 23 25 28 26 34 24 22 33 28 32 28 30
8 7 10 6 30 10 16 18 26 18 24 33 26 8 9 8 27 21 18 25 20 24 24 28 46 48 46 45 45 44 43 39 37 32 28 28 27 27 28 30 26 17 30 25 27 25 24 23 26
7 3 5 11 23 10 16 32 38 23 14 22 31 14 15 14 18 22 20 22 16 26 27 27 40 48 48 47 47 47 43 41 39 34 31 31 28 29 30 27 23 33 30 27 25 26 24 24 24
7 5 5 17 26 16 16 43 61 36 44 33 11 18 19 30 28 21 15 17 18 21 26 24 33 46 48 49 48 47 45 43 39 36 34 33 32 30 29 27 23 25 28 28 28 26 24 23 25
2 2 9 14 16 21 15 36 19 31 26 34 27 12 20 35 36 27 19 17 16 22 29 31 42 47 50 51 48 47 47 46 41 39 36 37 34 30 28 28 32 25 24 25 25 23 24 23 22
10 1 7 6 3 16 15 50 28 36 31 45 57 15 13 31 23 24 24 21 27 33 36 41 46 53 55 54 50 49 48 47 45 43 42 40 35 32 28 29 32 23 22 25 24 22 23 22 21
11 5 6 8 6 13 46 25 37 49 34 33 27 21 24 25 20 12 18 28 36 37 39 43 50 55 58 57 54 51 50 47 47 45 44 44 42 35 31 31 32 24 19 18 27 25 23 23 22
4 6 9 8 18 24 39 35 38 32 53 22 27 25 15 23 28 26 21 18 24 31 39 49 53 54 59 61 59 59 55 53 51 49 50 46 46 38 35 33 33 27 22 22 28 27 25 23 23
8 9 11 28 54 43 36 47 37 28 11 27 39 54 44 26 9 23 16 11 17 24 34 47 53 57 63 69 67 65 61 60 55 52 51 48 48 45 41 38 39 36 30 26 29 30 27 24 23
11 28 31 33 48 57 35 48 39 43 52 59 68 63 57 30 24 8 14 21 3 17 19 41 51 55 54 71 74 71 69 64 61 57 54 53 53 51 47 43 40 38 28 28 28 29 27 26 26
13 14 31 41 52 49 55 38 36 72 65 59 72 68 64 52 28 31 20 16 15 17 22 24 41 54 56 67 72 77 71 67 64 60 58 58 58 57 51 46 41 37 28 29 31 32 31 30 26
19 30 39 39 49 48 45 54 52 67 79 80 63 79 78 59 52 44 40 34 19 23 21 29 32 37 54 61 80 77 72 67 64 63 63 63 61 59 51 47 45 38 31 27 32 33 35 33 31
31 31 32 41 50 28 51 35 52 90 79 73 75 67 86 81 52 46 59 47 30 28 29 28 35 37 40 58 63 70 58 63 65 67 67 67 65 60 54 50 49 43 34 27 28 32 34 33 31
11 8 13 5 9 18 16 38 36 56 50 59 66 71 76 83 76 52 50 53 48 43 41 38 34 31 39 47 61 70 52 52 59 59 61 65 64 63 57 52 53 43 36 32 30 33 37 35 33
6 9 17 27 17 16 15 40 12 26 31 47 46 54 72 75 69 70 70 58 59 47 51 45 42 38 37 37 53 73 68 61 62 60 65 65 63 62 60 58 52 46 42 39 36 37 41 39 34
11 15 18 27 13 16 31 40 33 47 50 53 52 57 47 46 71 54 52 53 59 59 51 48 48 42 44 39 43 72 86 68 62 62 67 71 63 61 62 66 52 53 48 45 40 40 42 43 36
32 36 43 51 44 41 43 49 48 44 44 52 58 60 62 57 40 35 42 53 46 46 48 52 46 46 47 46 46 79 80 68 56 63 68 69 65 67 66 54 59 52 52 47 42 40 45 46 40
32 40 47 43 38 26 36 49 42 40 36 58 59 60 65 64 58 55 55 56 53 59 55 51 42 40 50 48 50 56 68 57 64 56 71 70 70 68 70 68 63 56 57 50 46 45 49 48 47
36 30 36 45 44 36 44 49 48 40 52 64 66 65 62 59 54 49 59 57 55 59 55 58 53 43 52 48 49 54 63 63 61 68 61 76 76 72 68 69 70 63 62 56 51 49 54 57 56
28 15 23 29 26 12 7 19 3 16 17 15 37 42 62 70 72 67 55 60 54 51 49 59 58 52 50 48 53 55 73 69 79 68 63 64 79 69 66 72 73 65 67 64 60 53 58 60 64
22 36 30 41 34 27 16 11 11 15 18 31 25 36 39 43 67 67 59 54 51 47 44 46 46 56 58 49 48 50 67 82 75 62 59 50 53 66 63 73 66 73 75 76 70 63 62 66 65
38 23 41 22 13 7 7 13 8 11 23 33 40 51 43 47 40 53 58 58 52 49 46 47 51 58 58 51 47 53 77 61 47 58 63 54 55 61 59 60 66 75 81 91 80 70 68 70 69
24 15 8 8 3 10 3 4 5 30 34 29 34 63 72 57 43 31 61 59 54 50 50 46 45 53 45 45 50 46 70 71 58 56 50 53 59 54 45 64 72 77 90 92 76 84 74 70 75
22 6 6 10 8 15 7 5 2 36 36 48 55 58 51 32 25 23 56 50 43 44 47 45 37 39 42 40 37 54 42 63 64 47 57 54 48 52 49 57 57 63 66 81 86 87 90 79 79
16 14 27 9 7 5 3 9 1 42 35 40 51 57 3 24 32 38 43 38 28 26 29 30 31 39 38 34 36 42 34 37 72 52 37 55 53 49 59 64 68 78 76 80 81 86 94 89 88
10 16 9 5 9 9 7 9 18 43 44 36 34 41 37 32 30 23 20 12 12 19 20 25 28 34 36 33 29 38 39 36 41 50 46 40 46 48 51 44 33 63 75 74 72 97 91 94 89
22 17 10 8 10 9 11 2 22 37 35 29 25 37 40 45 39 22 12 9 9 12 21 23 25 30 31 33 31 31 31 30 27 33 36 38 37 37 39 38 43 48 53 65 74 74 96 95 83
20 21 17 7 9 7 10 3 30 30 27 31 30 38 43 45 34 24 13 10 12 19 23 25 30 34 34 35 33 31 30 25 19 16 15 14 14 15 12 13 17 25 32 39 45 49 52 56 51
Wind_Direction_500mb
283 239 275 270 41 174 216 230 239 258 291 184 135 110 214 262 104 219 154 154 197 214 196 195 188 181 177 173 173 172 170 170 168 159 154 148 143 145 145 141 136 163 163 136 127 142 121 129 117
307 220 211 265 163 237 262 203 254 239 246 134 124 105 106 276 156 151 170 180 213 209 210 194 191 187 181 175 174 177 172 174 172 167 163 155 152 151 148 139 132 140 136 146 140 131 135 132 132
111 75 291 179 203 221 222 198 224 258 255 163 146 162 161 162 130 155 142 166 193 201 219 200 196 189 186 179 177 179 176 177 173 172 168 164 160 153 145 141 150 162 148 140 153 142 140 131 136
38 138 255 233 240 247 229 283 283 298 308 179 160 145 172 171 168 176 157 168 193 197 212 199 200 191 189 185 179 180 181 181 177 178 174 169 166 157 148 160 173 162 152 150 153 158 153 148 141
124 237 248 252 251 264 291 280 283 285 287 225 180 188 147 173 156 176 188 165 192 196 209 205 208 196 190 193 185 182 183 183 184 184 181 173 170 164 162 172 181 166 157 150 153 149 148 146 147
337 233 240 244 258 283 268 265 266 265 275 271 191 196 175 159 174 185 199 175 187 212 202 205 205 199 194 193 193 188 184 188 189 188 185 177 174 170 169 175 175 167 164 154 156 153 154 149 146
153 34 243 293 292 289 300 311 276 291 295 276 235 155 159 179 183 197 214 207 211 197 194 206 201 205 198 198 197 195 190 189 190 190 186 180 180 175 173 176 178 201 155 161 165 162 158 157 153
342 22 280 280 34 288 355 337 359 17 306 311 255 189 165 182 189 194 199 199 194 195 196 203 209 202 202 199 201 200 197 193 191 192 188 184 186 179 180 179 181 198 182 168 174 172 164 163 162
307 314 300 290 319 327 337 352 330 334 336 339 15 78 123 170 201 194 206 186 191 198 196 201 211 206 205 202 201 203 202 197 195 194 192 191 192 188 189 189 188 199 201 181 180 179 177 172 170
186 209 238 263 320 319 321 323 330 339 330 309 52 53 93 165 182 196 218 224 195 194 201 202 207 209 211 206 202 202 200 199 200 196 197 197 197 198 195 195 197 208 218 206 188 188 186 184 179
250 240 284 293 305 310 316 311 318 315 293 293 324 320 330 316 166 156 158 181 220 213 211 214 210 215 213 207 204 204 203 201 202 202 203 201 202 202 200 200 201 210 222 212 199 195 196 194 190
307 288 292 303 304 304 301 299 291 280 269 286 292 298 300 313 288 238 166 164 335 222 236 230 221 219 222 211 207 206 206 205 204 203 206 206 204 206 207 207 207 214 222 220 208 205 202 202 198
287 290 298 296 296 290 297 294 282 283 285 292 292 293 289 283 292 267 260 221 278 219 230 237 236 226 223 220 215 209 210 208 208 208 208 210 210 205 208 213 217 228 230 228 214 207 206 207 210
297 313 299 290 287 283 278 277 274 271 280 280 275 279 279 281 273 272 269 260 252 232 237 234 241 239 232 228 212 206 208 212 213 213 210 208 213 208 206 214 217 233 232 229 220 210 211 211 214
309 305 296 277 263 262 260 270 255 252 258 268 276 271 276 270 275 263 263 260 245 241 242 238 250 240 247 237 220 205 202 206 213 214 212 213 211 212 210 213 217 227 227 232 223 212 213 215 222
267 253 294 209 256 249 139 251 260 278 258 255 268 272 266 269 260 257 255 256 250 246 246 233 245 254 249 245 231 210 201 212 209 208 207 210 210 211 206 216 220 225 231 233 234 223 220 219 222
288 254 259 295 236 271 211 273 312 294 273 273 279 295 266 261 262 255 251 255 251 249 252 250 248 252 255 252 237 212 203 204 207 209 211 213 213 211 210 219 221 233 234 236 235 227 222 222 222
271 278 260 271 276 286 283 275 272 271 279 277 278 283 281 263 255 254 250 256 257 246 247 245 252 253 254 256 242 224 204 203 208 212 212 213 212 209 212 220 225 229 227 231 232 230 224 225 227
270 267 267 270 274 277 271 268 272 269 259 260 263 268 273 271 257 238 239 252 249 243 243 241 248 245 243 243 225 214 221 218 214 217 213 213 209 213 216 218 224 230 229 234 233 232 225 224 222
271 275 275 278 276 265 276 270 264 260 255 249 249 246 252 258 260 250 245 247 248 249 249 237 236 234 236 244 238 233 210 216 220 218 217 216 216 216 220 223 228 236 231 229 232 233 226 225 219
280 267 274 274 292 274 268 273 264 258 250 251 255 252 245 244 248 249 236 238 243 245 242 241 240 247 233 240 240 230 219 224 223 215 220 219 216 224 222 229 227 237 234 234 236 237 228 226 225
288 254 292 289 296 304 124 294 82 262 237 254 256 259 241 245 250 251 244 230 239 247 244 235 240 245 237 230 234 230 230 214 200 231 230 223 219 217 220 227 230 236 238 239 241 239 234 229 229
271 292 280 275 274 289 243 256 283 340 18 346 332 329 345 275 249 238 235 230 235 241 244 237 242 239 238 231 228 233 217 218 212 218 225 225 230 220 231 233 233 236 240 242 246 242 237 233 234
290 299 286 272 250 245 302 178 314 23 337 327 330 327 317 310 313 253 232 232 233 237 242 244 243 238 240 227 224 234 227 220 207 211 216 223 230 221 226 230 242 240 245 242 243 244 247 240 239
328 338 310 1 343 223 286 178 278 7 351 331 319 311 303 301 299 297 221 222 224 230 240 248 253 255 235 235 225 233 231 230 223 221 222 226 224 237 234 239 246 245 243 245 239 251 247 240 241
314 288 287 313 312 286 180 250 196 12 343 337 326 312 294 287 288 231 195 201 211 227 235 243 243 236 228 233 232 234 233 214 220 223 234 230 227 240 247 258 254 255 251 241 242 253 261 246 242
327 316 296 260 247 260 202 344 75 352 346 339 345 348 115 104 109 132 167 187 201 218 230 234 230 225 222 222 218 219 211 229 230 205 219 224 225 235 241 244 249 259 265 247 243 250 251 253 243
289 297 330 292 312 296 5 60 332 344 343 347 343 355 12 77 90 104 131 160 185 214 230 224 228 218 212 208 199 211 203 200 199 206 213 224 234 250 241 248 264 244 242 249 252 244 247 246 245
2 2 348 287 25 326 326 62 358 346 336 337 339 1 21 62 77 87 105 164 180 207 213 205 205 204 194 188 181 187 197 204 207 219 223 229 239 239 246 249 247 240 239 241 243 236 237 233 237
12 0 11 353 4 319 287 344 18 344 341 343 356 17 35 67 78 92 108 151 168 171 167 173 174 171 164 164 154 156 157 168 179 177 171 185 196 211 219 233 240 252 253 257 257 253 234 227 233
Wind_Speed_850mb
14 12 8 3 3 1 9 12 17 16 12 7 19 13 3 6 3 6 35 15 19 26 20 46 48 48 47 44 41 39 37 37 31 29 28 27 25 24 23 22 17 22 28 26 27 29 27 34 34
4 5 4 5 6 8 9 18 24 23 39 20 14 13 4 8 7 21 28 24 22 26 22 42 46 47 48 45 42 40 39 39 33 30 28 27 24 22 20 19 24 34 31 32 32 29 33 31 32
1 3 3 6 9 19 9 15 33 34 36 28 17 12 9 5 26 24 21 23 24 25 22 32 46 47 47 45 43 41 42 40 36 32 27 27 25 23 25 28 26 34 24 22 33 28 32 28 30
8 7 10 6 30 10 16 18 26 18 24 33 26 8 9 8 27 21 18 25 20 24 24 28 46 48 46 45 45 44 43 39 37 32 28 28 27 27 28 30 26 17 30 25 27 25 24 23 26
7 3 5 11 23 10 16 32 38 23 14 22 31 14 15 14 18 22 20 22 16 26 27 27 40 48 48 47 47 47 43 41 39 34 31 31 28 29 30 27 23 33 30 27 25 26 24 24 24
7 5 5 17 26 16 16 43 61 36 44 33 11 18 19 30 28 21 15 17 18 21 26 24 33 46 48 49 48 47 45 43 39 36 34 33 32 30 29 27 23 25 28 28 28 26 24 23 25
2 2 9 14 16 21 15 36 19 31 26 34 27 12 20 35 36 27 19 17 16 22 29 31 42 47 50 51 48 47 47 46 41 39 36 37 34 30 28 28 32 25 24 25 25 23 24 23 22
10 1 7 6 3 16 15 50 28 36 31 45 57 15 13 31 23 24 24 21 27 33 36 41 46 53 55 54 50 49 48 47 45 43 42 40 35 32 28 29 32 23 22 25 24 22 23 22 21
11 5 6 8 6 13 46 25 37 49 34 33 27 21 24 25 20 12 18 28 36 37 39 43 50 55 58 57 54 51 50 47 47 45 44 44 42 35 31 31 32 24 19 18 27 25 23 23 22
4 6 9 8 18 24 39 35 38 32 53 22 27 25 15 23 28 26 21 18 24 31 39 49 53 54 59 61 59 59 55 53 51 49 50 46 46 38 35 33 33 27 22 22 28 27 25 23 23
8 9 11 28 54 43 36 47 37 28 11 27 39 54 44 26 9 23 16 11 17 24 34 47 53 57 63 69 67 65 61 60 55 52 51 48 48 45 41 38 39 36 30 26 29 30 27 24 23
11 28 31 33 48 57 35 48 39 43 52 59 68 63 57 30 24 8 14 21 3 17 19 41 51 55 54 71 74 71 69 64 61 57 54 53 53 51 47 43 40 38 28 28 28 29 27 26 26
13 14 31 41 52 49 55 38 36 72 65 59 72 68 64 52 28 31 20 16 15 17 22 24 41 54 56 67 72 77 71 67 64 60 58 58 58 57 51 46 41 37 28 29 31 32 31 30 26
19 30 39 39 49 48 45 54 52 67 79 80 63 79 78 59 52 44 40 34 19 23 21 29 32 37 54 61 80 77 72 67 64 63 63 63 61 59 51 47 45 38 31 27 32 33 35 33 31
31 31 32 41 50 28 51 35 52 90 79 73 75 67 86 81 52 46 59 47 30 28 29 28 35 37 40 58 63 70 58 63 65 67 67 67 65 60 54 50 49 43 34 27 28 32 34 33 31
11 8 13 5 9 18 16 38 36 56 50 59 66 71 76 83 76 52 50 53 48 43 41 38 34 31 39 47 61 70 52 52 59 59 61 65 64 63 57 52 53 43 36 32 30 33 37 35 33
6 9 17 27 17 16 15 40 12 26 31 47 46 54 72 75 69 70 70 58 59 47 51 45 42 38 37 37 53 73 68 61 62 60 65 65 63 62 60 58 52 46 42 39 36 37 41 39 34
11 15 18 27 13 16 31 40 33 47 50 53 52 57 47 46 71 54 52 53 59 59 51 48 48 42 44 39 43 72 86 68 62 62 67 71 63 61 62 66 52 53 48 45 40 40 42 43 36
32 36 43 51 44 41 43 49 48 44 44 52 58 60 62 57 40 35 42 53 46 46 48 52 46 46 47 46 46 79 80 68 56 63 68 69 65 67 66 54 59 52 52 47 42 40 45 46 40
32 40 47 43 38 26 36 49 42 40 36 58 59 60 65 64 58 55 55 56 53 59 55 51 42 40 50 48 50 56 68 57 64 56 71 70 70 68 70 68 63 56 57 50 46 45 49 48 47
36 30 36 45 44 36 44 49 48 40 52 64 66 65 62 59 54 49 59 57 55 59 55 58 53 43 52 48 49 54 63 63 61 68 61 76 76 72 68 69 70 63 62 56 51 49 54 57 56
28 15 23 29 26 12 7 19 3 16 17 15 37 42 62 70 72 67 55 60 54 51 49 59 58 52 50 48 53 55 73 69 79 68 63 64 79 69 66 72 73 65 67 64 60 53 58 60 64
22 36 30 41 34 27 16 11 11 15 18 31 25 36 39 43 67 67 59 54 51 47 44 46 46 56 58 49 48 50 67 82 75 62 59 50 53 66 63 73 66 73 75 76 70 63 62 66 65
38 23 41 22 13 7 7 13 8 11 23 33 40 51 43 47 40 53 58 58 52 49 46 47 51 58 58 51 47 53 77 61 47 58 63 54 55 61 59 60 66 75 81 91 80 70 68 70 69
24 15 8 8 3 10 3 4 5 30 34 29 34 63 72 57 43 31 61 59 54 50 50 46 45 53 45 45 50 46 70 71 58 56 50 53 59 54 45 64 72 77 90 92 76 84 74 70 75
22 6 6 10 8 15 7 5 2 36 36 48 55 58 51 32 25 23 56 50 43 44 47 45 37 39 42 40 37 54 42 63 64 47 57 54 48 52 49 57 57 63 66 81 86 87 90 79 79
16 14 27 9 7 5 3 9 1 42 35 40 51 57 3 24 32 38 43 38 28 26 29 30 31 39 38 34 36 42 34 37 72 52 37 55 53 49 59 64 68 78 76 80 81 86 94 89 88
10 16 9 5 9 9 7 9 18 43 44 36 34 41 37 32 30 23 20 12 12 19 20 25 28 34 36 33 29 38 39 36 41 50 46 40 46 48 51 44 33 63 75 74 72 97 91 94 89
22 17 10 8 10 9 11 2 22 37 35 29 25 37 40 45 39 22 12 9 9 12 21 23 25 30 31 33 31 31 31 30 27 33 36 38 37 37 39 38 43 48 53 65 74 74 96 95 83
20 21 17 7 9 7 10 3 30 30 27 31 30 38 43 45 34 24 13 10 12 19 23 25 30 34 34 35 33 31 30 25 19 16 15 14 14 15 12 13 17 25 32 39 45 49 52 56 51
Wind_Direction_850mb
283 239 275 270 41 174 216 230 239 258 291 184 135 110 214 262 104 219 154 154 197 214 196 195 188 181 177 173 173 172 170 170 168 159 154 148 143 145 145 141 136 163 163 136 127 142 121 129 117
307 220 211 265 163 237 262 203 254 239 246 134 124 105 106 276 156 151 170 180 213 209 210 194 191 187 181 175 174 177 172 174 172 167 163 155 152 151 148 139 132 140 136 146 140 131 135 132 132
111 75 291 179 203 221 222 198 224 258 255 163 146 162 161 162 130 155 142 166 193 201 219 200 196 189 186 179 177 179 176 177 173 172 168 164 160 153 145 141 150 162 148 140 153 142 140 131 136
38 138 255 233 240 247 229 283 283 298 308 179 160 145 172 171 168 176 157 168 193 197 212 199 200 191 189 185 179 180 181 181 177 178 174 169 166 157 148 160 173 162 152 150 153 158 153 148 141
124 237 248 252 251 264 291 280 283 285 287 225 180 188 147 173 156 176 188 165 192 196 209 205 208 196 190 193 185 182 183 183 184 184 181 173 170 164 162 172 181 166 157 150 153 149 148 146 147
337 233 240 244 258 283 268 265 266 265 275 271 191 196 175 159 174 185 199 175 187 212 202 205 205 199 194 193 193 188 184 188 189 188 185 177 174 170 169 175 175 167 164 154 156 153 154 149 146
153 34 243 293 292 289 300 311 276 291 295 276 235 155 159 179 183 197 214 207 211 197 194 206 201 205 198 198 197 195 190 189 190 190 186 180 180 175 173 176 178 201 155 161 165 162 158 157 153
342 22 280 280 34 288 355 337 359 17 306 311 255 189 165 182 189 194 199 199 194 195 196 203 209 202 202 199 201 200 197 193 191 192 188 184 186 179 180 179 181 198 182 168 174 172 164 163 162
307 314 300 290 319 327 337 352 330 334 336 339 15 78 123 170 201 194 206 186 191 198 196 201 211 206 205 202 201 203 202 197 195 194 192 191 192 188 189 189 188 199 201 181 180 179 177 172 170
186 209 238 263 320 319 321 323 330 339 330 309 52 53 93 165 182 196 218 224 195 194 201 202 207 209 211 206 202 202 200 199 200 196 197 197 197 198 195 195 197 208 218 206 188 188 186 184 179
250 240 284 293 305 310 316 311 318 315 293 293 324 320 330 316 166 156 158 181 220 213 211 214 210 215 213 207 204 204 203 201 202 202 203 201 202 202 200 200 201 210 222 212 199 195 196 194 190
307 288 292 303 304 304 301 299 291 280 269 286 292 298 300 313 288 238 166 164 335 222 236 230 221 219 222 211 207 206 206 205 204 203 206 206 204 206 207 207 207 214 222 220 208 205 202 202 198
287 290 298 296 296 290 297 294 282 283 285 292 292 293 289 283 292 267 260 221 278 219 230 237 236 226 223 220 215 209 210 208 208 208 208 210 210 205 208 213 217 228 230 228 214 207 206 207 210
297 313 299 290 287 283 278 277 274 271 280 280 275 279 279 281 273 272 269 260 252 232 237 234 241 239 232 228 212 206 208 212 213 213 210 208 213 208 206 214 217 233 232 229 220 210 211 211 214
309 305 296 277 263 262 260 270 255 252 258 268 276 271 276 270 275 263 263 260 245 241 242 238 250 240 247 237 220 205 202 206 213 214 212 213 211 212 210 213 217 227 227 232 223 212 213 215 222
267 253 294 209 256 249 139 251 260 278 258 255 268 272 266 269 260 257 255 256 250 246 246 233 245 254 249 245 231 210 201 212 209 208 207 210 210 211 206 216 220 225 231 233 234 223 220 219 222
288 254 259 295 236 271 211 273 312 294 273 273 279 295 266 261 262 255 251 255 251 249 252 250 248 252 255 252 237 212 203 204 207 209 211 213 213 211 210 219 221 233 234 236 235 227 222 222 222
271 278 260 271 276 286 283 275 272 271 279 277 278 283 281 263 255 254 250 256 257 246 247 245 252 253 254 256 242 224 204 203 208 212 212 213 212 209 212 220 225 229 227 231 232 230 224 225 227
270 267 267 270 274 277 271 268 272 269 259 260 263 268 273 271 257 238 239 252 249 243 243 241 248 245 243 243 225 214 221 218 214 217 213 213 209 213 216 218 224 230 229 234 233 232 225 224 222
271 275 275 278 276 265 276 270 264 260 255 249 249 246 252 258 260 250 245 247 248 249 249 237 236 234 236 244 238 233 210 216 220 218 217 216 216 216 220 223 228 236 231 229 232 233 226 225 219
280 267 274 274 292 274 268 273 264 258 250 251 255 252 245 244 248 249 236 238 243 245 242 241 240 247 233 240 240 230 219 224 223 215 220 219 216 224 222 229 227 237 234 234 236 237 228 226 225
288 254 292 289 296 304 124 294 82 262 237 254 256 259 241 245 250 251 244 230 239 247 244 235 240 245 237 230 234 230 230 214 200 231 230 223 219 217 220 227 230 236 238 239 241 239 234 229 229
271 292 280 275 274 289 243 256 283 340 18 346 332 329 345 275 249 238 235 230 235 241 244 237 242 239 238 231 228 233 217 218 212 218 225 225 230 220 231 233 233 236 240 242 246 242 237 233 234
290 299 286 272 250 245 302 178 314 23 337 327 330 327 317 310 313 253 232 232 233 237 242 244 243 238 240 227 224 234 227 220 207 211 216 223 230 221 226 230 242 240 245 242 243 244 247 240 239
328 338 310 1 343 223 286 178 278 7 351 331 319 311 303 301 299 297 221 222 224 230 240 248 253 255 235 235 225 233 231 230 223 221 222 226 224 237 234 239 246 245 243 245 239 251 247 240 241
314 288 287 313 312 286 180 250 196 12 343 337 326 312 294 287 288 231 195 201 211 227 235 243 243 236 228 233 232 234 233 214 220 223 234 230 227 240 247 258 254 255 251 241 242 253 261 246 242
327 316 296 260 247 260 202 344 75 352 346 339 345 348 115 104 109 132 167 187 201 218 230 234 230 225 222 222 218 219 211 229 230 205 219 224 225 235 241 244 249 259 265 247 243 250 251 253 243
289 297 330 292 312 296 5 60 332 344 343 347 343 355 12 77 90 104 131 160 185 214 230 224 228 218 212 208 199 211 203 200 199 206 213 224 234 250 241 248 264 244 242 249 252 244 247 246 245
2 2 348 287 25 326 326 62 358 346 336 337 339 1 21 62 77 87 105 164 180 207 213 205 205 204 194 188 181 187 197 204 207 219 223 229 239 239 246 249 247 240 239 241 243 236 237 233 237
12 0 11 353 4 319 287 344 18 344 341 343 356 17 35 67 78 92 108 151 168 171 167 173 174 171 164 164 154 156 157 168 179 177 171 185 196 211 219 233 240 252 253 257 257 253 234 227 233